EW8735 Weather Reports


time (UTC)temp
C
wind
direction
speed
KPH
gust
KPH
rain 1hr
cm
rain 24hr
cm
rain mn
cm
humidity
%
barometer
mb
20260906024514 17 80 0.0 0.0 0.00 0.00 0.00 58 1012.4
20260906023015 17 80 0.0 0.0 0.00 0.00 0.00 56 1012.5
20260906021515 18 80 0.0 0.0 0.00 0.00 0.00 53 1012.5
20260906020014 18 79 0.0 0.0 0.00 0.00 0.00 51 1012.4
20260906014513 19 83 0.0 0.0 0.00 0.00 0.00 50 1012.6
20260906013016 20 83 0.0 0.0 0.00 0.00 0.00 48 1012.6
20260906011512 20 83 0.0 0.0 0.00 0.00 0.00 47 1012.5
20260906010012 20 83 0.0 0.0 0.00 0.00 0.00 46 1012.5
20260906004511 20 83 0.0 0.0 0.00 0.00 0.00 47 1012.4
20260906003010 20 84 0.0 0.0 0.00 0.00 0.00 46 1012.3
20260906001517 20 84 0.0 0.0 0.00 0.00 0.00 49 1012.3
20260906000030 20 84 0.0 0.0 0.00 0.00 0.00 47 1012.3
20260905234508 20 85 0.0 0.0 0.00 0.00 0.00 48 1012.4
20260905233009 20 85 0.0 0.0 0.00 0.00 0.00 48 1012.4
20260905231507 21 85 0.0 0.0 0.00 0.00 0.00 48 1012.2
20260905230006 20 85 0.0 0.0 0.00 0.00 0.00 48 1012.5
20260905224503 20 85 0.0 0.0 0.00 0.00 0.00 48 1012.7
20260905223100 19 85 0.0 0.0 0.00 0.00 0.00 47 1012.9
20260905221558 19 85 0.0 0.0 0.00 0.00 0.00 53 1013.1
20260905220059 18 91 0.0 0.0 0.00 0.00 0.00 55 1013.0
20260905214554 18 95 0.0 0.0 0.00 0.00 0.00 55 1013.2
20260905213054 17 109 0.0 0.0 0.00 0.00 0.00 58 1014.1
20260905211556 18 112 0.0 0.0 0.00 0.00 0.00 56 1013.5
20260905210108 18 127 0.0 0.0 0.00 0.00 0.00 52 1013.6
20260905204558 18 133 0.0 0.0 0.00 0.00 0.00 51 1013.7
20260905203053 18 133 0.0 0.0 0.00 0.00 0.00 51 1013.7
20260905201551 18 141 0.0 0.0 0.00 0.00 0.00 51 1013.8
20260905200049 17 154 0.0 0.0 0.00 0.00 0.00 53 1014.1
20260905194604 18 155 0.0 0.0 0.00 0.00 0.00 49 1014.0
20260905193048 18 156 0.0 0.0 0.00 0.00 0.00 51 1013.9
20260905191550 18 156 0.0 0.0 0.00 0.00 0.00 51 1013.9
20260905190042 17 155 0.0 0.0 0.00 0.00 0.00 54 1014.4
20260905184555 17 155 0.0 0.0 0.00 0.00 0.00 56 1014.4
20260905183046 16 136 0.0 0.0 0.00 0.00 0.00 58 1014.4
20260905181546 16 136 0.0 0.0 0.00 0.00 0.00 57 1014.6
20260905180036 16 136 0.0 0.0 0.00 0.00 0.00 58 1014.9
20260905174535 16 136 0.0 0.0 0.00 0.00 0.00 58 1014.9
20260905173033 15 136 0.0 0.0 0.00 0.00 0.00 63 1014.9
20260905171528 15 136 0.0 0.0 0.00 0.00 0.00 63 1014.9
20260905170026 15 132 0.0 0.0 0.00 0.00 0.00 70 1014.9
20260905164525 14 132 0.0 0.0 0.00 0.00 0.00 71 1014.7
20260905163018 13 132 0.0 0.0 0.00 0.00 0.00 74 1014.7
20260905161514 13 132 0.0 0.0 0.00 0.00 0.00 77 1014.6
20260905160019 12 125 0.0 0.0 0.00 0.00 0.00 79 1014.6
20260905154513 12 118 0.0 0.0 0.00 0.00 0.00 79 1014.6
20260905153013 12 118 0.0 0.0 0.00 0.00 0.00 81 1014.6
20260905151513 12 120 0.0 0.0 0.00 0.00 0.00 83 1014.5
20260905150012 11 121 0.0 0.0 0.00 0.00 0.00 83 1014.5
20260905144511 11 121 0.0 0.0 0.00 0.00 0.00 84 1014.6
20260905143010 10 121 0.0 0.0 0.00 0.00 0.00 84 1014.6
20260905141508 10 222 0.0 0.0 0.00 0.00 0.00 84 1014.3
20260905140008 10 222 0.0 0.0 0.00 0.00 0.00 84 1014.3
20260905134505 10 222 0.0 0.0 0.00 0.00 0.00 83 1014.2
20260905133007 10 247 0.0 0.0 0.00 0.00 0.00 83 1014.1
20260905131503 10 247 0.0 0.0 0.00 0.00 0.00 82 1013.9
20260905130000 10 247 0.0 0.0 0.00 0.00 0.00 80 1013.9
20260905124558 11 247 0.0 0.0 0.00 0.00 0.00 78 1013.9
20260905123100 11 247 0.0 0.0 0.00 0.00 0.00 77 1013.9
20260905121601 11 247 0.0 0.0 0.00 0.00 0.00 78 1013.9
20260905120056 11 247 0.0 0.0 0.00 0.00 0.00 79 1014.0
20260905114555 11 260 0.0 0.0 0.00 0.00 0.00 81 1014.0
20260905113056 11 276 0.0 0.0 0.00 0.00 0.00 79 1013.7
20260905111641 11 278 0.0 0.0 0.00 0.00 0.00 76 1013.9
20260905110051 11 328 0.0 0.0 0.00 0.00 0.00 78 1013.8
20260905104550 11 328 0.0 0.0 0.00 0.00 0.00 76 1013.4
20260905103048 11 328 0.0 0.0 0.00 0.00 0.00 75 1013.3
20260905101556 11 328 0.0 0.0 0.00 0.00 0.00 76 1013.3
20260905100050 11 328 0.0 0.0 0.00 0.00 0.00 76 1013.4
20260905094545 11 329 0.0 0.0 0.00 0.00 0.00 76 1013.0
20260905093044 11 329 0.0 0.0 0.00 0.00 0.00 74 1013.0
20260905091543 12 328 0.0 0.0 0.00 0.00 0.00 73 1013.1
20260905090043 12 328 0.0 0.0 0.00 0.00 0.00 73 1013.1
20260905084548 12 328 0.0 0.0 0.00 0.00 0.00 72 1013.3
20260905083041 12 328 0.0 0.0 0.00 0.00 0.00 71 1013.1
20260905081540 11 328 0.0 0.0 0.00 0.00 0.00 73 1013.1
20260905080048 11 332 0.0 0.0 0.00 0.00 0.00 74 1013.0
20260905074541 12 332 0.0 0.0 0.00 0.00 0.00 71 1012.8
20260905073035 12 78 0.0 0.0 0.00 0.00 0.00 66 1012.1
20260905071533 12 78 0.0 0.0 0.00 0.00 0.00 70 1012.1
20260905070025 11 77 0.0 0.0 0.00 0.00 0.00 73 1012.0
20260905064523 10 65 0.0 0.0 0.00 0.00 0.00 75 1011.9
20260905063022 9 65 0.0 0.0 0.00 0.00 0.00 76 1011.8
20260905061525 10 65 0.0 0.0 0.00 0.00 0.00 72 1011.6
20260905060026 10 65 0.0 0.0 0.00 0.00 0.00 70 1011.5
20260905054518 11 65 0.0 0.0 0.00 0.00 0.00 70 1011.4
20260905053018 11 65 0.0 0.0 0.00 0.00 0.00 70 1011.4
20260905051522 10 64 0.0 0.0 0.00 0.00 0.00 70 1011.4
20260905050017 11 52 0.0 0.0 0.00 0.00 0.00 68 1011.1
20260905044517 11 52 0.0 0.0 0.00 0.00 0.00 68 1011.1
20260905043016 11 52 0.0 0.0 0.00 0.00 0.00 67 1011.3
20260905041516 12 51 0.0 0.0 0.00 0.00 0.00 65 1011.4
20260905040016 12 51 0.0 0.0 0.00 0.00 0.00 61 1011.3
20260905034515 13 55 0.0 0.0 0.00 0.00 0.00 57 1011.2
20260905033028 14 55 0.0 0.0 0.00 0.00 0.00 56 1011.0
20260905031515 15 55 0.0 0.0 0.00 0.00 0.00 54 1010.9
20260905030015 16 54 0.0 0.0 0.00 0.00 0.00 52 1011.0